Location: Brockett
(40.8000°S, 175.4500°E)
Time: 02:36:42
(UTC+00:00)

Cosmos 2112 Rocket - Pass Details

Date: 04 August 2024
Orbit: 753 x 785 km, 74.1° (Epoch: 07 September)

Event Time Altitude Azimuth Distance (km) Brightness Sun altitude
Exits shadow 17:30:56 42° 290° (WNW) 1,087 4.3 -21.0°
Drops below altitude 10° 17:35:33 10° 352° (N) 2,288 6.4 -20.1°
Sets 17:37:59 0° 359° (N) 3,201 7.3 -19.6°
